Year,Month,Day,Hour,Minute,Value (Times are PST for temperature in C)
2017,05,29,00,00,16.00
2017,05,29,00,01,16.00
2017,05,29,00,02,16.00
2017,05,29,00,03,15.90
2017,05,29,00,04,15.90
2017,05,29,00,05,15.90
2017,05,29,00,06,15.90
2017,05,29,00,07,15.90
2017,05,29,00,08,15.90
2017,05,29,00,09,15.90
2017,05,29,00,10,15.80
2017,05,29,00,11,15.80
2017,05,29,00,12,15.80
2017,05,29,00,13,15.80
2017,05,29,00,14,15.80
2017,05,29,00,15,15.70
2017,05,29,00,16,15.70
2017,05,29,00,17,15.70
2017,05,29,00,18,15.70
2017,05,29,00,19,15.60
2017,05,29,00,20,15.60
2017,05,29,00,21,15.60
2017,05,29,00,22,15.60
2017,05,29,00,23,15.60
2017,05,29,00,24,15.60
2017,05,29,00,25,15.50
2017,05,29,00,26,15.50
2017,05,29,00,27,15.50
2017,05,29,00,28,15.40
2017,05,29,00,29,15.40
2017,05,29,00,30,15.30
2017,05,29,00,31,15.30
2017,05,29,00,32,15.30
2017,05,29,00,33,15.20
2017,05,29,00,34,15.20
2017,05,29,00,35,15.10
2017,05,29,00,36,15.10
2017,05,29,00,37,15.10
2017,05,29,00,38,15.10
2017,05,29,00,39,15.00
2017,05,29,00,40,15.00
2017,05,29,00,41,15.00
2017,05,29,00,42,15.00
2017,05,29,00,43,15.10
2017,05,29,00,44,15.10
2017,05,29,00,45,15.10
2017,05,29,00,46,15.10
2017,05,29,00,47,15.00
2017,05,29,00,48,15.00
2017,05,29,00,49,15.00
2017,05,29,00,50,15.00
2017,05,29,00,51,15.00
2017,05,29,00,52,14.90
2017,05,29,00,53,14.90
2017,05,29,00,54,14.90
2017,05,29,00,55,14.90
2017,05,29,00,56,14.90
2017,05,29,00,57,14.80
2017,05,29,00,58,14.80
2017,05,29,00,59,14.80
2017,05,29,01,00,14.80
2017,05,29,01,01,14.80
2017,05,29,01,02,14.80
2017,05,29,01,03,14.80
2017,05,29,01,04,14.80
2017,05,29,01,05,14.80
2017,05,29,01,06,14.90
2017,05,29,01,07,15.00
2017,05,29,01,08,15.10
2017,05,29,01,09,15.10
2017,05,29,01,10,15.10
2017,05,29,01,11,15.20
2017,05,29,01,12,15.20
2017,05,29,01,13,15.30
2017,05,29,01,14,15.30
2017,05,29,01,15,15.40
2017,05,29,01,16,15.40
2017,05,29,01,17,15.40
2017,05,29,01,18,15.50
2017,05,29,01,19,15.50
2017,05,29,01,20,15.50
2017,05,29,01,21,15.50
2017,05,29,01,22,15.50
2017,05,29,01,23,15.50
2017,05,29,01,24,15.50
2017,05,29,01,25,15.50
2017,05,29,01,26,15.50
2017,05,29,01,27,15.50
2017,05,29,01,28,15.50
2017,05,29,01,29,15.50
2017,05,29,01,30,15.50
2017,05,29,01,31,15.50
2017,05,29,01,32,15.50
2017,05,29,01,33,15.50
2017,05,29,01,34,15.50
2017,05,29,01,35,15.60
2017,05,29,01,36,15.60
2017,05,29,01,37,15.60
2017,05,29,01,38,15.60
2017,05,29,01,39,15.60
2017,05,29,01,40,15.70
2017,05,29,01,41,15.70
2017,05,29,01,42,15.70
2017,05,29,01,43,15.70
2017,05,29,01,44,15.70
2017,05,29,01,45,15.70
2017,05,29,01,46,15.70
2017,05,29,01,47,15.70
2017,05,29,01,48,15.70
2017,05,29,01,49,15.70
2017,05,29,01,50,15.70
2017,05,29,01,51,15.60
2017,05,29,01,52,15.60
2017,05,29,01,53,15.60
2017,05,29,01,54,15.50
2017,05,29,01,55,15.50
2017,05,29,01,56,15.50
2017,05,29,01,57,15.50
2017,05,29,01,58,15.50
2017,05,29,01,59,15.40
2017,05,29,02,00,15.40
2017,05,29,02,01,15.40
2017,05,29,02,02,15.40
2017,05,29,02,03,15.40
2017,05,29,02,04,15.40
2017,05,29,02,05,15.40
2017,05,29,02,06,15.40
2017,05,29,02,07,15.40
2017,05,29,02,08,15.40
2017,05,29,02,09,15.40
2017,05,29,02,10,15.30
2017,05,29,02,11,15.30
2017,05,29,02,12,15.30
2017,05,29,02,13,15.30
2017,05,29,02,14,15.30
2017,05,29,02,15,15.30
2017,05,29,02,16,15.30
2017,05,29,02,17,15.20
2017,05,29,02,18,15.20
2017,05,29,02,19,15.20
2017,05,29,02,20,15.20
2017,05,29,02,21,15.30
2017,05,29,02,22,15.30
2017,05,29,02,23,15.30
2017,05,29,02,24,15.30
2017,05,29,02,25,15.30
2017,05,29,02,26,15.30
2017,05,29,02,27,15.30
2017,05,29,02,28,15.30
2017,05,29,02,29,15.30
2017,05,29,02,30,15.30
2017,05,29,02,31,15.30
2017,05,29,02,32,15.30
2017,05,29,02,33,15.30
2017,05,29,02,34,15.30
2017,05,29,02,35,15.30
2017,05,29,02,36,15.30
2017,05,29,02,37,15.30
2017,05,29,02,38,15.20
2017,05,29,02,39,15.20
2017,05,29,02,40,15.20
2017,05,29,02,41,15.20
2017,05,29,02,42,15.20
2017,05,29,02,43,15.20
2017,05,29,02,44,15.20
2017,05,29,02,45,15.20
2017,05,29,02,46,15.20
2017,05,29,02,47,15.20
2017,05,29,02,48,15.20
2017,05,29,02,49,15.20
2017,05,29,02,50,15.10
2017,05,29,02,51,15.10
2017,05,29,02,52,15.10
2017,05,29,02,53,15.10
2017,05,29,02,54,15.10
2017,05,29,02,55,15.10
2017,05,29,02,56,15.10
2017,05,29,02,57,15.10
2017,05,29,02,58,15.10
2017,05,29,02,59,15.10
2017,05,29,03,00,15.10
2017,05,29,03,01,15.10
2017,05,29,03,02,15.10
2017,05,29,03,03,15.00
2017,05,29,03,04,15.00
2017,05,29,03,05,15.00
2017,05,29,03,06,15.00
2017,05,29,03,07,14.90
2017,05,29,03,08,14.90
2017,05,29,03,09,14.90
2017,05,29,03,10,14.90
2017,05,29,03,11,14.80
2017,05,29,03,12,14.80
2017,05,29,03,13,14.80
2017,05,29,03,14,14.80
2017,05,29,03,15,14.70
2017,05,29,03,16,14.70
2017,05,29,03,17,14.60
2017,05,29,03,18,14.60
2017,05,29,03,19,14.50
2017,05,29,03,20,14.40
2017,05,29,03,21,14.40
2017,05,29,03,22,14.30
2017,05,29,03,23,14.30
2017,05,29,03,24,14.30
2017,05,29,03,25,14.20
2017,05,29,03,26,14.20
2017,05,29,03,27,14.20
2017,05,29,03,28,14.10
2017,05,29,03,29,14.10
2017,05,29,03,30,14.10
2017,05,29,03,31,14.10
2017,05,29,03,32,14.00
2017,05,29,03,33,14.00
2017,05,29,03,34,14.00
2017,05,29,03,35,14.00
2017,05,29,03,36,14.00
2017,05,29,03,37,13.90
2017,05,29,03,38,13.90
2017,05,29,03,39,13.90
2017,05,29,03,40,13.90
2017,05,29,03,41,13.90
2017,05,29,03,42,13.80
2017,05,29,03,43,13.80
2017,05,29,03,44,13.80
2017,05,29,03,45,13.80
2017,05,29,03,46,13.80
2017,05,29,03,47,13.80
2017,05,29,03,48,13.80
2017,05,29,03,49,13.80
2017,05,29,03,50,13.80
2017,05,29,03,51,13.70
2017,05,29,03,52,13.70
2017,05,29,03,53,13.70
2017,05,29,03,54,13.70
2017,05,29,03,55,13.70
2017,05,29,03,56,13.60
2017,05,29,03,57,13.60
2017,05,29,03,58,13.60
2017,05,29,03,59,13.60
2017,05,29,04,00,13.60
2017,05,29,04,01,13.60
2017,05,29,04,02,13.60
2017,05,29,04,03,13.50
2017,05,29,04,04,13.50
2017,05,29,04,05,13.50
2017,05,29,04,06,13.40
2017,05,29,04,07,13.40
2017,05,29,04,08,13.40
2017,05,29,04,09,13.40
2017,05,29,04,10,13.40
2017,05,29,04,11,13.40
2017,05,29,04,12,13.40
2017,05,29,04,13,13.40
2017,05,29,04,14,13.40
2017,05,29,04,15,13.30
2017,05,29,04,16,13.30
2017,05,29,04,17,13.30
2017,05,29,04,18,13.30
2017,05,29,04,19,13.30
2017,05,29,04,20,13.30
2017,05,29,04,21,13.30
2017,05,29,04,22,13.20
2017,05,29,04,23,13.20
2017,05,29,04,24,13.20
2017,05,29,04,25,13.20
2017,05,29,04,26,13.20
2017,05,29,04,27,13.20
2017,05,29,04,28,13.20
2017,05,29,04,29,13.20
2017,05,29,04,30,13.20
2017,05,29,04,31,13.20
2017,05,29,04,32,13.20
2017,05,29,04,33,13.20
2017,05,29,04,34,13.20
2017,05,29,04,35,13.20
2017,05,29,04,36,13.20
2017,05,29,04,37,13.20
2017,05,29,04,38,13.20
2017,05,29,04,39,13.20
2017,05,29,04,40,13.20
2017,05,29,04,41,13.20
2017,05,29,04,42,13.10
2017,05,29,04,43,13.10
2017,05,29,04,44,13.10
2017,05,29,04,45,13.10
2017,05,29,04,46,13.10
2017,05,29,04,47,13.10
2017,05,29,04,48,13.10
2017,05,29,04,49,13.10
2017,05,29,04,50,13.10
2017,05,29,04,51,13.10
2017,05,29,04,52,13.00
2017,05,29,04,53,13.00
2017,05,29,04,54,13.00
2017,05,29,04,55,13.00
2017,05,29,04,56,13.00
2017,05,29,04,57,13.00
2017,05,29,04,58,13.00
2017,05,29,04,59,13.10
2017,05,29,05,00,13.10
2017,05,29,05,01,13.10
2017,05,29,05,02,13.10
2017,05,29,05,03,13.00
2017,05,29,05,04,13.00
2017,05,29,05,05,13.00
2017,05,29,05,06,13.00
2017,05,29,05,07,13.00
2017,05,29,05,08,13.00
2017,05,29,05,09,13.00
2017,05,29,05,10,13.00
2017,05,29,05,11,13.00
2017,05,29,05,12,13.00
2017,05,29,05,13,13.00
2017,05,29,05,14,13.00
2017,05,29,05,15,12.90
2017,05,29,05,16,12.90
2017,05,29,05,17,12.90
2017,05,29,05,18,12.90
2017,05,29,05,19,12.90
2017,05,29,05,20,12.90
2017,05,29,05,21,12.90
2017,05,29,05,22,12.80
2017,05,29,05,23,12.80
2017,05,29,05,24,12.80
2017,05,29,05,25,12.80
2017,05,29,05,26,12.80
2017,05,29,05,27,12.80
2017,05,29,05,28,12.70
2017,05,29,05,29,12.70
2017,05,29,05,30,12.70
2017,05,29,05,31,12.70
2017,05,29,05,32,12.70
2017,05,29,05,33,12.60
2017,05,29,05,34,12.60
2017,05,29,05,35,12.60
2017,05,29,05,36,12.60
2017,05,29,05,37,12.50
2017,05,29,05,38,12.50
2017,05,29,05,39,12.50
2017,05,29,05,40,12.50
2017,05,29,05,41,12.40
2017,05,29,05,42,12.40
2017,05,29,05,43,12.40
2017,05,29,05,44,12.40
2017,05,29,05,45,12.40
2017,05,29,05,46,12.40
2017,05,29,05,47,12.40
2017,05,29,05,48,12.30
2017,05,29,05,49,12.30
2017,05,29,05,50,12.30
2017,05,29,05,51,12.30
2017,05,29,05,52,12.30
2017,05,29,05,53,12.40
2017,05,29,05,54,12.40
2017,05,29,05,55,12.40
2017,05,29,05,56,12.40
2017,05,29,05,57,12.40
2017,05,29,05,58,12.40
2017,05,29,05,59,12.40
2017,05,29,06,00,12.40
2017,05,29,06,01,12.40
2017,05,29,06,02,12.40
2017,05,29,06,03,12.40
2017,05,29,06,04,12.40
2017,05,29,06,05,12.40
2017,05,29,06,06,12.40
2017,05,29,06,07,12.40
2017,05,29,06,08,12.40
2017,05,29,06,09,12.40
2017,05,29,06,10,12.50
2017,05,29,06,11,12.50
2017,05,29,06,12,12.50
2017,05,29,06,13,12.50
2017,05,29,06,14,12.60
2017,05,29,06,15,12.60
2017,05,29,06,16,12.60
2017,05,29,06,17,12.60
2017,05,29,06,18,12.60
2017,05,29,06,19,12.70
2017,05,29,06,20,12.70
2017,05,29,06,21,12.70
2017,05,29,06,22,12.70
2017,05,29,06,23,12.80
2017,05,29,06,24,12.80
2017,05,29,06,25,12.80
2017,05,29,06,26,12.80
2017,05,29,06,27,12.90
2017,05,29,06,28,12.90
2017,05,29,06,29,12.90
2017,05,29,06,30,13.00
2017,05,29,06,31,13.00
2017,05,29,06,32,13.10
2017,05,29,06,33,13.10
2017,05,29,06,34,13.10
2017,05,29,06,35,13.20
2017,05,29,06,36,13.20
2017,05,29,06,37,13.30
2017,05,29,06,38,13.30
2017,05,29,06,39,13.30
2017,05,29,06,40,13.40
2017,05,29,06,41,13.50
2017,05,29,06,42,13.50
2017,05,29,06,43,13.60
2017,05,29,06,44,13.70
2017,05,29,06,45,13.70
2017,05,29,06,46,13.80
2017,05,29,06,47,13.90
2017,05,29,06,48,13.90
2017,05,29,06,49,14.00
2017,05,29,06,50,14.10
2017,05,29,06,51,14.10
2017,05,29,06,52,14.20
2017,05,29,06,53,14.30
2017,05,29,06,54,14.40
2017,05,29,06,55,14.50
2017,05,29,06,56,14.60
2017,05,29,06,57,14.70
2017,05,29,06,58,14.80
2017,05,29,06,59,14.90
2017,05,29,07,00,15.00
2017,05,29,07,01,15.10
2017,05,29,07,02,15.20
2017,05,29,07,03,15.40
2017,05,29,07,04,15.50
2017,05,29,07,05,15.60
2017,05,29,07,06,15.70
2017,05,29,07,07,15.90
2017,05,29,07,08,16.00
2017,05,29,07,09,16.10
2017,05,29,07,10,16.20
2017,05,29,07,11,16.30
2017,05,29,07,12,16.40
2017,05,29,07,13,16.40
2017,05,29,07,14,16.50
2017,05,29,07,15,16.60
2017,05,29,07,16,16.70
2017,05,29,07,17,16.80
2017,05,29,07,18,16.80
2017,05,29,07,19,16.90
2017,05,29,07,20,16.90
2017,05,29,07,21,16.90
2017,05,29,07,22,16.90
2017,05,29,07,23,17.00
2017,05,29,07,24,17.00
2017,05,29,07,25,17.00
2017,05,29,07,26,16.90
2017,05,29,07,27,16.90
2017,05,29,07,28,16.90
2017,05,29,07,29,16.90
2017,05,29,07,30,16.90
2017,05,29,07,31,16.90
2017,05,29,07,32,16.90
2017,05,29,07,33,16.90
2017,05,29,07,34,16.90
2017,05,29,07,35,16.90
2017,05,29,07,36,17.00
2017,05,29,07,37,17.00
2017,05,29,07,38,17.00
2017,05,29,07,39,17.00
2017,05,29,07,40,17.10
2017,05,29,07,41,17.10
2017,05,29,07,42,17.10
2017,05,29,07,43,17.10
2017,05,29,07,44,17.10
2017,05,29,07,45,17.10
2017,05,29,07,46,17.10
2017,05,29,07,47,17.20
2017,05,29,07,48,17.20
2017,05,29,07,49,17.20
2017,05,29,07,50,17.20
2017,05,29,07,51,17.20
2017,05,29,07,52,17.20
2017,05,29,07,53,17.20
2017,05,29,07,54,17.20
2017,05,29,07,55,17.20
2017,05,29,07,56,17.20
2017,05,29,07,57,17.20
2017,05,29,07,58,17.30
2017,05,29,07,59,17.30
2017,05,29,08,00,17.30
2017,05,29,08,01,17.30
2017,05,29,08,02,17.30
2017,05,29,08,03,17.30
2017,05,29,08,04,17.20
2017,05,29,08,05,17.20
2017,05,29,08,06,17.20
2017,05,29,08,07,17.10
2017,05,29,08,08,17.10
2017,05,29,08,09,17.00
2017,05,29,08,10,17.00
2017,05,29,08,11,16.90
2017,05,29,08,12,16.90
2017,05,29,08,13,16.90
2017,05,29,08,14,16.90
2017,05,29,08,15,16.90
2017,05,29,08,16,16.90
2017,05,29,08,17,16.90
2017,05,29,08,18,16.90
2017,05,29,08,19,16.90
2017,05,29,08,20,17.00
2017,05,29,08,21,17.00
2017,05,29,08,22,17.00
2017,05,29,08,23,17.10
2017,05,29,08,24,17.10
2017,05,29,08,25,17.10
2017,05,29,08,26,17.20
2017,05,29,08,27,17.20
2017,05,29,08,28,17.20
2017,05,29,08,29,17.30
2017,05,29,08,30,17.30
2017,05,29,08,31,17.40
2017,05,29,08,32,17.40
2017,05,29,08,33,17.50
2017,05,29,08,34,17.60
2017,05,29,08,35,17.60
2017,05,29,08,36,17.70
2017,05,29,08,37,17.70
2017,05,29,08,38,17.70
2017,05,29,08,39,17.80
2017,05,29,08,40,17.80
2017,05,29,08,41,17.80
2017,05,29,08,42,17.80
2017,05,29,08,43,17.90
2017,05,29,08,44,17.90
2017,05,29,08,45,18.00
2017,05,29,08,46,18.00
2017,05,29,08,47,18.00
2017,05,29,08,48,18.00
2017,05,29,08,49,18.10
2017,05,29,08,50,18.10
2017,05,29,08,51,18.10
2017,05,29,08,52,18.20
2017,05,29,08,53,18.20
2017,05,29,08,54,18.20
2017,05,29,08,55,18.30
2017,05,29,08,56,18.30
2017,05,29,08,57,18.30
2017,05,29,08,58,18.30
2017,05,29,08,59,18.30
2017,05,29,09,00,18.30
2017,05,29,09,01,18.30
2017,05,29,09,02,18.30
2017,05,29,09,03,18.30
2017,05,29,09,04,18.30
2017,05,29,09,05,18.30
2017,05,29,09,06,18.30
2017,05,29,09,07,18.30
2017,05,29,09,08,18.30
2017,05,29,09,09,18.30
2017,05,29,09,10,18.30
2017,05,29,09,11,18.30
2017,05,29,09,12,18.30
2017,05,29,09,13,18.30
2017,05,29,09,14,18.30
2017,05,29,09,15,18.30
2017,05,29,09,16,18.30
2017,05,29,09,17,18.30
2017,05,29,09,18,18.30
2017,05,29,09,19,18.30
2017,05,29,09,20,18.30
2017,05,29,09,21,18.20
2017,05,29,09,22,18.20
2017,05,29,09,23,18.20
2017,05,29,09,24,18.30
2017,05,29,09,25,18.20
2017,05,29,09,26,18.20
2017,05,29,09,27,18.20
2017,05,29,09,28,18.20
2017,05,29,09,29,18.30
2017,05,29,09,30,18.20
2017,05,29,09,31,18.20
2017,05,29,09,32,18.20
2017,05,29,09,33,18.20
2017,05,29,09,34,18.20
2017,05,29,09,35,18.20
2017,05,29,09,36,18.20
2017,05,29,09,37,18.20
2017,05,29,09,38,18.20
2017,05,29,09,39,18.20
2017,05,29,09,40,18.20
2017,05,29,09,41,18.20
2017,05,29,09,42,18.10
2017,05,29,09,43,18.10
2017,05,29,09,44,18.10
2017,05,29,09,45,18.00
2017,05,29,09,46,18.00
2017,05,29,09,47,18.00
2017,05,29,09,48,18.10
2017,05,29,09,49,18.00
2017,05,29,09,50,18.00
2017,05,29,09,51,17.90
2017,05,29,09,52,17.90
2017,05,29,09,53,17.90
2017,05,29,09,54,17.90
2017,05,29,09,55,17.90
2017,05,29,09,56,17.90
2017,05,29,09,57,17.90
2017,05,29,09,58,17.90
2017,05,29,09,59,17.90
2017,05,29,10,00,17.90
2017,05,29,10,01,18.00
2017,05,29,10,02,18.00
2017,05,29,10,03,18.00
2017,05,29,10,04,18.00
2017,05,29,10,05,18.00
2017,05,29,10,06,18.00
2017,05,29,10,07,18.10
2017,05,29,10,08,18.10
2017,05,29,10,09,18.20
2017,05,29,10,10,18.30
2017,05,29,10,11,18.30
2017,05,29,10,12,18.30
2017,05,29,10,13,18.40
2017,05,29,10,14,18.50
2017,05,29,10,15,18.50
2017,05,29,10,16,18.60
2017,05,29,10,17,18.70
2017,05,29,10,18,18.70
2017,05,29,10,19,18.70
2017,05,29,10,20,18.80
2017,05,29,10,21,18.70
2017,05,29,10,22,18.70
2017,05,29,10,23,18.80
2017,05,29,10,24,18.80
2017,05,29,10,25,18.80
2017,05,29,10,26,18.80
2017,05,29,10,27,18.90
2017,05,29,10,28,18.90
2017,05,29,10,29,19.00
2017,05,29,10,30,19.10
2017,05,29,10,31,19.20
2017,05,29,10,32,19.30
2017,05,29,10,33,19.30
2017,05,29,10,34,19.50
2017,05,29,10,35,19.60
2017,05,29,10,36,19.70
2017,05,29,10,37,19.80
2017,05,29,10,38,19.90
2017,05,29,10,39,19.90
2017,05,29,10,40,19.90
2017,05,29,10,41,20.00
2017,05,29,10,42,20.00
2017,05,29,10,43,20.00
2017,05,29,10,44,20.00
2017,05,29,10,45,20.10
2017,05,29,10,46,20.10
2017,05,29,10,47,20.20
2017,05,29,10,48,20.30
2017,05,29,10,49,20.30
2017,05,29,10,50,20.40
2017,05,29,10,51,20.40
2017,05,29,10,52,20.40
2017,05,29,10,53,20.50
2017,05,29,10,54,20.50
2017,05,29,10,55,20.50
2017,05,29,10,56,20.60
2017,05,29,10,57,20.60
2017,05,29,10,58,20.60
2017,05,29,10,59,20.60
2017,05,29,11,00,20.60
2017,05,29,11,01,20.60
2017,05,29,11,02,20.60
2017,05,29,11,03,20.70
2017,05,29,11,04,20.80
2017,05,29,11,05,20.80
2017,05,29,11,06,20.90
2017,05,29,11,07,20.90
2017,05,29,11,08,20.90
2017,05,29,11,09,20.90
2017,05,29,11,10,20.90
2017,05,29,11,11,21.00
2017,05,29,11,12,21.00
2017,05,29,11,13,21.00
2017,05,29,11,14,21.00
2017,05,29,11,15,21.00
2017,05,29,11,16,21.10
2017,05,29,11,17,21.10
2017,05,29,11,18,21.10
2017,05,29,11,19,21.10
2017,05,29,11,20,21.10
2017,05,29,11,21,21.20
2017,05,29,11,22,21.20
2017,05,29,11,23,21.20
2017,05,29,11,24,21.30
2017,05,29,11,25,21.30
2017,05,29,11,26,21.30
2017,05,29,11,27,21.20
2017,05,29,11,28,21.20
2017,05,29,11,29,21.20
2017,05,29,11,30,21.20
2017,05,29,11,31,21.20
2017,05,29,11,32,21.20
2017,05,29,11,33,21.30
2017,05,29,11,34,21.40
2017,05,29,11,35,21.40
2017,05,29,11,36,21.50
2017,05,29,11,37,21.50
2017,05,29,11,38,21.50
2017,05,29,11,39,21.50
2017,05,29,11,40,21.60
2017,05,29,11,41,21.60
2017,05,29,11,42,21.70
2017,05,29,11,43,21.70
2017,05,29,11,44,21.80
2017,05,29,11,45,21.80
2017,05,29,11,46,21.80
2017,05,29,11,47,21.80
2017,05,29,11,48,21.70
2017,05,29,11,49,21.70
2017,05,29,11,50,21.80
2017,05,29,11,51,21.80
2017,05,29,11,52,21.80
2017,05,29,11,53,21.90
2017,05,29,11,54,21.90
2017,05,29,11,55,22.00
2017,05,29,11,56,22.10
2017,05,29,11,57,22.20
2017,05,29,11,58,22.20
2017,05,29,11,59,22.30
2017,05,29,12,00,22.30
2017,05,29,12,01,22.30
2017,05,29,12,02,22.30
2017,05,29,12,03,22.30
2017,05,29,12,04,22.30
2017,05,29,12,05,22.20
2017,05,29,12,06,22.00
2017,05,29,12,07,21.90
2017,05,29,12,08,21.90
2017,05,29,12,09,21.80
2017,05,29,12,10,21.80
2017,05,29,12,11,21.90
2017,05,29,12,12,22.00
2017,05,29,12,13,22.00
2017,05,29,12,14,22.00
2017,05,29,12,15,21.90
2017,05,29,12,16,21.80
2017,05,29,12,17,21.80
2017,05,29,12,18,21.80
2017,05,29,12,19,21.70
2017,05,29,12,20,21.70
2017,05,29,12,21,21.70
2017,05,29,12,22,21.70
2017,05,29,12,23,21.60
2017,05,29,12,24,21.50
2017,05,29,12,25,21.50
2017,05,29,12,26,21.40
2017,05,29,12,27,21.40
2017,05,29,12,28,21.30
2017,05,29,12,29,21.30
2017,05,29,12,30,21.30
2017,05,29,12,31,21.20
2017,05,29,12,32,21.20
2017,05,29,12,33,21.20
2017,05,29,12,34,21.20
2017,05,29,12,35,21.20
2017,05,29,12,36,21.20
2017,05,29,12,37,21.20
2017,05,29,12,38,21.30
2017,05,29,12,39,21.30
2017,05,29,12,40,21.30
2017,05,29,12,41,21.30
2017,05,29,12,42,21.30
2017,05,29,12,43,21.30
2017,05,29,12,44,21.30
2017,05,29,12,45,21.40
2017,05,29,12,46,21.40
2017,05,29,12,47,21.40
2017,05,29,12,48,21.40
2017,05,29,12,49,21.40
2017,05,29,12,50,21.40
2017,05,29,12,51,21.40
2017,05,29,12,52,21.40
2017,05,29,12,53,21.50
2017,05,29,12,54,21.50
2017,05,29,12,55,21.50
2017,05,29,12,56,21.50
2017,05,29,12,57,21.60
2017,05,29,12,58,21.60
2017,05,29,12,59,21.60
2017,05,29,13,00,21.70
2017,05,29,13,01,21.70
2017,05,29,13,02,21.70
2017,05,29,13,03,21.70
2017,05,29,13,04,21.70
2017,05,29,13,05,21.70
2017,05,29,13,06,21.80
2017,05,29,13,07,21.80
2017,05,29,13,08,21.90
2017,05,29,13,09,21.90
2017,05,29,13,10,22.00
2017,05,29,13,11,22.10
2017,05,29,13,12,22.10
2017,05,29,13,13,22.10
2017,05,29,13,14,22.10
2017,05,29,13,15,22.00
2017,05,29,13,16,22.10
2017,05,29,13,17,22.10
2017,05,29,13,18,22.10
2017,05,29,13,19,22.10
2017,05,29,13,20,22.10
2017,05,29,13,21,22.20
2017,05,29,13,22,22.20
2017,05,29,13,23,22.20
2017,05,29,13,24,22.30
2017,05,29,13,25,22.30
2017,05,29,13,26,22.30
2017,05,29,13,27,22.30
2017,05,29,13,28,22.30
2017,05,29,13,29,22.30
2017,05,29,13,30,22.30
2017,05,29,13,31,22.40
2017,05,29,13,32,22.40
2017,05,29,13,33,22.50
2017,05,29,13,34,22.50
2017,05,29,13,35,22.50
2017,05,29,13,36,22.40
2017,05,29,13,37,22.40
2017,05,29,13,38,22.40
2017,05,29,13,39,22.40
2017,05,29,13,40,22.40
2017,05,29,13,41,22.40
2017,05,29,13,42,22.40
2017,05,29,13,43,22.50
2017,05,29,13,44,22.50
2017,05,29,13,45,22.60
2017,05,29,13,46,22.70
2017,05,29,13,47,22.80
2017,05,29,13,48,22.90
2017,05,29,13,49,22.90
2017,05,29,13,50,23.00
2017,05,29,13,51,22.90
2017,05,29,13,52,22.80
2017,05,29,13,53,22.70
2017,05,29,13,54,22.60
2017,05,29,13,55,22.60
2017,05,29,13,56,22.60
2017,05,29,13,57,22.60
2017,05,29,13,58,22.60
2017,05,29,13,59,22.70
2017,05,29,14,00,22.80
2017,05,29,14,01,22.80
2017,05,29,14,02,22.80
2017,05,29,14,03,22.80
2017,05,29,14,04,22.80
2017,05,29,14,05,22.80
2017,05,29,14,06,22.80
2017,05,29,14,07,22.80
2017,05,29,14,08,22.90
2017,05,29,14,09,22.90
2017,05,29,14,10,22.90
2017,05,29,14,11,22.80
2017,05,29,14,12,22.80
2017,05,29,14,13,22.70
2017,05,29,14,14,22.60
2017,05,29,14,15,22.60
2017,05,29,14,16,22.50
2017,05,29,14,17,22.50
2017,05,29,14,18,22.40
2017,05,29,14,19,22.40
2017,05,29,14,20,22.40
2017,05,29,14,21,22.30
2017,05,29,14,22,22.30
2017,05,29,14,23,22.20
2017,05,29,14,24,22.10
2017,05,29,14,25,22.00
2017,05,29,14,26,21.90
2017,05,29,14,27,21.90
2017,05,29,14,28,21.80
2017,05,29,14,29,21.80
2017,05,29,14,30,21.70
2017,05,29,14,31,21.70
2017,05,29,14,32,21.70
2017,05,29,14,33,21.70
2017,05,29,14,34,21.80
2017,05,29,14,35,21.80
2017,05,29,14,36,21.90
2017,05,29,14,37,21.90
2017,05,29,14,38,22.00
2017,05,29,14,39,22.00
2017,05,29,14,40,22.00
2017,05,29,14,41,22.00
2017,05,29,14,42,22.10
2017,05,29,14,43,22.20
2017,05,29,14,44,22.20
2017,05,29,14,45,22.30
2017,05,29,14,46,22.40
2017,05,29,14,47,22.40
2017,05,29,14,48,22.50
2017,05,29,14,49,22.50
2017,05,29,14,50,22.40
2017,05,29,14,51,22.30
2017,05,29,14,52,22.20
2017,05,29,14,53,22.20
2017,05,29,14,54,22.20
2017,05,29,14,55,22.20
2017,05,29,14,56,22.20
2017,05,29,14,57,22.20
2017,05,29,14,58,22.30
2017,05,29,14,59,22.30
2017,05,29,15,00,22.40
2017,05,29,15,01,22.50
2017,05,29,15,02,22.60
2017,05,29,15,03,22.60
2017,05,29,15,04,22.70
2017,05,29,15,05,22.70
2017,05,29,15,06,22.70
2017,05,29,15,07,22.80
2017,05,29,15,08,22.90
2017,05,29,15,09,23.00
2017,05,29,15,10,23.10
2017,05,29,15,11,23.10
2017,05,29,15,12,23.10
2017,05,29,15,13,23.20
2017,05,29,15,14,23.20
2017,05,29,15,15,23.20
2017,05,29,15,16,23.20
2017,05,29,15,17,23.20
2017,05,29,15,18,23.20
2017,05,29,15,19,23.20
2017,05,29,15,20,23.20
2017,05,29,15,21,23.20
2017,05,29,15,22,23.20
2017,05,29,15,23,23.20
2017,05,29,15,24,23.20
2017,05,29,15,25,23.30
2017,05,29,15,26,23.30
2017,05,29,15,27,23.30
2017,05,29,15,28,23.20
2017,05,29,15,29,23.20
2017,05,29,15,30,23.30
2017,05,29,15,31,23.30
2017,05,29,15,32,23.30
2017,05,29,15,33,23.30
2017,05,29,15,34,23.40
2017,05,29,15,35,23.40
2017,05,29,15,36,23.40
2017,05,29,15,37,23.40
2017,05,29,15,38,23.40
2017,05,29,15,39,23.40
2017,05,29,15,40,23.40
2017,05,29,15,41,23.30
2017,05,29,15,42,23.30
2017,05,29,15,43,23.30
2017,05,29,15,44,23.30
2017,05,29,15,45,23.20
2017,05,29,15,46,23.20
2017,05,29,15,47,23.20
2017,05,29,15,48,23.10
2017,05,29,15,49,23.10
2017,05,29,15,50,23.00
2017,05,29,15,51,23.00
2017,05,29,15,52,22.90
2017,05,29,15,53,22.90
2017,05,29,15,54,22.90
2017,05,29,15,55,22.90
2017,05,29,15,56,22.90
2017,05,29,15,57,22.90
2017,05,29,15,58,22.90
2017,05,29,15,59,22.90
2017,05,29,16,00,22.90
2017,05,29,16,01,22.90
2017,05,29,16,02,23.00
2017,05,29,16,03,23.00
2017,05,29,16,04,23.10
2017,05,29,16,05,23.20
2017,05,29,16,06,23.20
2017,05,29,16,07,23.20
2017,05,29,16,08,23.10
2017,05,29,16,09,23.20
2017,05,29,16,10,23.20
2017,05,29,16,11,23.20
2017,05,29,16,12,23.20
2017,05,29,16,13,23.20
2017,05,29,16,14,23.20
2017,05,29,16,15,23.20
2017,05,29,16,16,23.20
2017,05,29,16,17,23.20
2017,05,29,16,18,23.10
2017,05,29,16,19,23.10
2017,05,29,16,20,23.10
2017,05,29,16,21,23.10
2017,05,29,16,22,23.10
2017,05,29,16,23,23.20
2017,05,29,16,24,23.20
2017,05,29,16,25,23.10
2017,05,29,16,26,23.10
2017,05,29,16,27,23.10
2017,05,29,16,28,23.10
2017,05,29,16,29,23.10
2017,05,29,16,30,23.10
2017,05,29,16,31,23.20
2017,05,29,16,32,23.20
2017,05,29,16,33,23.30
2017,05,29,16,34,23.30
2017,05,29,16,35,23.40
2017,05,29,16,36,23.40
2017,05,29,16,37,23.50
2017,05,29,16,38,23.50
2017,05,29,16,39,23.60
2017,05,29,16,40,23.60
2017,05,29,16,41,23.60
2017,05,29,16,42,23.70
2017,05,29,16,43,23.70
2017,05,29,16,44,23.70
2017,05,29,16,45,23.70
2017,05,29,16,46,23.70
2017,05,29,16,47,23.70
2017,05,29,16,48,23.70
2017,05,29,16,49,23.70
2017,05,29,16,50,23.70
2017,05,29,16,51,23.70
2017,05,29,16,52,23.70
2017,05,29,16,53,23.80
2017,05,29,16,54,23.80
2017,05,29,16,55,23.80
2017,05,29,16,56,23.80
2017,05,29,16,57,23.80
2017,05,29,16,58,23.90
2017,05,29,16,59,23.90
2017,05,29,17,00,23.90
2017,05,29,17,01,23.90
2017,05,29,17,02,23.90
2017,05,29,17,03,23.90
2017,05,29,17,04,23.80
2017,05,29,17,05,23.80
2017,05,29,17,06,23.70
2017,05,29,17,07,23.60
2017,05,29,17,08,23.60
2017,05,29,17,09,23.50
2017,05,29,17,10,23.50
2017,05,29,17,11,23.50
2017,05,29,17,12,23.50
2017,05,29,17,13,23.50
2017,05,29,17,14,23.50
2017,05,29,17,15,23.50
2017,05,29,17,16,23.50
2017,05,29,17,17,23.60
2017,05,29,17,18,23.60
2017,05,29,17,19,23.60